Location: Buch
(49.7331°N, 12.1098°E)
Time: 00:06:21
(UTC+00:00)

Cosmos 1937 Rocket - Pass Details

Date: 12 May 2021
Orbit: 745 x 781 km, 74.0° (Epoch: 23 June)

Event Time Altitude Azimuth Distance (km) Brightness Sun altitude
Exits shadow 21:31:16 36° 164° (SSE) 1,182 3.9 -18.6°
Maximum altitude 21:33:06 55° 107° (ESE) 905 3.6 -18.7°
Drops below altitude 10° 21:38:08 10° 31° (NNE) 2,289 6.4 -19.1°
Sets 21:40:33 0° 27° (NNE) 3,224 7.3 -19.2°
